Location: Silverdale
(47.6506°N, 122.6941°W)
Time: 12:18:21
(UTC+00:00)

Courier 1B - Pass Details

Date: 11 October 2022
Orbit: 962 x 1209 km, 28.3° (Epoch: 04 December)

Event Time Altitude Azimuth Distance (km) Brightness Sun altitude
Rises 18:35:42 0° 213° (SSW) 4,094 11.2 32.2°
Reaches altitude 10° 18:40:37 10° 187° (S) 3,138 11.2 32.6°
Maximum altitude 18:43:40 13° 163° (SSE) 2,936 11.6 32.7°
Drops below altitude 10° 18:46:42 10° 140° (SE) 3,125 11.4 32.9°
Sets 18:51:33 0° 114° (ESE) 4,060 11.3 33.2°
